TimeEDT,TemperatureF,Dew PointF,Humidity,Sea Level PressureIn,VisibilityMPH,Wind Direction,Wind SpeedMPH,Gust SpeedMPH,PrecipitationIn,Events,Conditions,WindDirDegrees,DateUTC
12:53 AM,73.9,73.0,97,30.11,6.0,SE,4.6,-,N/A,,Clear,130,2013-06-21 04:53:00
1:53 AM,75.0,72.0,90,30.10,10.0,Calm,Calm,-,N/A,,Clear,0,2013-06-21 05:53:00
2:53 AM,73.0,72.0,96,30.09,9.0,Calm,Calm,-,N/A,,Clear,0,2013-06-21 06:53:00
3:53 AM,73.0,72.0,96,30.07,8.0,Calm,Calm,-,N/A,,Clear,0,2013-06-21 07:53:00
4:53 AM,73.9,73.0,97,30.07,9.0,North,4.6,-,N/A,,Clear,360,2013-06-21 08:53:00
5:53 AM,73.9,73.0,97,30.08,8.0,Calm,Calm,-,N/A,,Clear,0,2013-06-21 09:53:00
6:53 AM,73.0,72.0,96,30.09,8.0,Calm,Calm,-,N/A,,Clear,0,2013-06-21 10:53:00
7:53 AM,75.0,73.0,94,30.11,10.0,Calm,Calm,-,N/A,,Clear,0,2013-06-21 11:53:00
8:34 AM,77.0,73.4,89,30.11,10.0,Calm,Calm,-,N/A,,Scattered Clouds,0,2013-06-21 12:34:00
8:53 AM,78.1,72.0,81,30.13,10.0,Calm,Calm,-,N/A,,Scattered Clouds,0,2013-06-21 12:53:00
9:53 AM,80.1,72.0,76,30.14,10.0,Calm,Calm,-,N/A,,Clear,0,2013-06-21 13:53:00
10:53 AM,82.9,73.0,72,30.14,10.0,Calm,Calm,-,N/A,,Clear,0,2013-06-21 14:53:00
11:53 AM,84.9,72.0,65,30.14,10.0,SSW,4.6,-,N/A,,Scattered Clouds,200,2013-06-21 15:53:00
12:53 PM,87.1,72.0,61,30.12,10.0,Calm,Calm,-,N/A,,Mostly Cloudy,0,2013-06-21 16:53:00
1:53 PM,87.1,70.0,57,30.12,10.0,Calm,Calm,-,N/A,,Clear,0,2013-06-21 17:53:00
2:53 PM,87.1,70.0,57,30.09,10.0,East,4.6,-,N/A,,Mostly Cloudy,80,2013-06-21 18:53:00
3:53 PM,87.1,71.1,59,30.08,10.0,SSE,11.5,-,N/A,,Mostly Cloudy,150,2013-06-21 19:53:00
4:30 PM,80.6,69.8,70,30.07,10.0,WSW,19.6,31.1,N/A,,Overcast,250,2013-06-21 20:30:00
4:44 PM,77.0,69.8,78,30.12,10.0,NW,18.4,23.0,N/A,,Overcast,310,2013-06-21 20:44:00
4:47 PM,77.0,69.8,78,30.12,10.0,NW,11.5,23.0,N/A,,Overcast,310,2013-06-21 20:47:00
4:53 PM,75.9,70.0,82,30.14,10.0,NW,12.7,-,N/A,,Overcast,310,2013-06-21 20:53:00
5:53 PM,73.9,70.0,87,30.14,10.0,NW,5.8,-,0.00,,Scattered Clouds,320,2013-06-21 21:53:00
6:53 PM,73.9,70.0,87,30.13,10.0,Calm,Calm,-,0.01,Rain,Light Rain,0,2013-06-21 22:53:00
7:53 PM,73.9,71.1,91,30.13,10.0,NNE,6.9,-,0.06,Rain,Light Rain,30,2013-06-21 23:53:00
8:53 PM,73.9,71.1,91,30.12,10.0,ENE,3.5,-,0.01,,Partly Cloudy,60,2013-06-22 00:53:00
9:53 PM,73.9,71.1,91,30.14,10.0,Calm,Calm,-,N/A,,Clear,0,2013-06-22 01:53:00
10:53 PM,73.9,72.0,93,30.14,10.0,Calm,Calm,-,N/A,,Clear,0,2013-06-22 02:53:00
11:53 PM,73.9,72.0,93,30.13,10.0,Calm,Calm,-,N/A,,Clear,0,2013-06-22 03:53:00